Regional Weather Roundup
Issued by NWS

Home | Current Version | Previous Version | Text Only | Print | Product List | Glossary On
Versions: 1 2 3 4 5 6 7 8 9 10 11 12 13 14 15 16 17 18 19 20 21 22 23 24 25 26 27 28 29 30 31 32 33 34 35 36 37 38 39 40 41 42 43 44 45 46 47 48 49 50
000
ASUS46 KSEW 282210
RWRWA

WASHINGTON REGIONAL WEATHER ROUNDUP
NATIONAL WEATHER SERVICE SEATTLE WA
300 PM PDT TUE JUL 28 2015

NOTE:"FAIR" INDICATES FEW OR NO CLOUDS BELOW 12,000 FEET WITH NO
SIGNIFICANT WEATHER AND/OR OBSTRUCTIONS TO VISIBILITY.

WAZ505-507>509-282300-
SEATTLE, TACOMA, EVERETT, AND VICINITY

CITY           SKY/WX    TMP DP  RH WIND       PRES   REMARKS
EVERETT        SUNNY     75  50  41 NE8       30.25F
BOEING FIELD   MOSUNNY   80  51  36 W9        30.22F
RENTON         SUNNY     79  52  38 NW13      30.21F
SEATAC AIRPORT MOSUNNY   80  51  36 N13G20    30.24F
JBLM-MCCHORD   SUNNY     80  51  37 NE7       30.22F
PUYALLUP       FAIR      81  52  36 VRB7      30.23F
BREMERTON      SUNNY     77  54  44 NE7       30.25F
JBLM-FT LEWIS  SUNNY     79  51  38 NW9       30.22F
TACOMA NARROWS SUNNY     76  49  38 N10       30.23F
$$

WAZ001-503-506-510-514-515-282300-
NORTH INTERIOR

CITY           SKY/WX    TMP DP  RH WIND       PRES   REMARKS
BELLINGHAM     SUNNY     76  52  43 VRB3      30.23F
FRIDAY HARBOR  SUNNY     73  54  51 S8        30.25F
EASTSOUND      SUNNY     72  55  56 N6        30.23S
PORT ANGELES   SUNNY     68  53  58 NW6       30.26F
PORT TOWNSEND  FAIR      75  52  43 NW7       30.24F
NAS WHIDBEY    PTSUNNY   70  54  56 W9        30.29F
ARLINGTON      SUNNY     77  52  41 NW10      30.24F
BURLINGTON     SUNNY     77  52  41 W9        30.23F
$$

WAZ020-022-039-040-504-511-512-282300-
SOUTHWEST INTERIOR

CITY           SKY/WX    TMP DP  RH WIND       PRES   REMARKS
SHELTON        SUNNY     80  51  36 E9        30.20F
OLYMPIA        SUNNY     80  48  32 N15       30.23F
CHEHALIS       FAIR      84  54  34 N8G17     30.21F
KELSO          SUNNY     84  52  32 N12G18    30.19F
VANCOUVER      SUNNY     83  50  31 NW13      30.15F
SCAPPOOSE, OR  SUNNY     84  50  30 N10G18    30.15F
PORTLAND, OR   MOSUNNY   83  53  35 NW13      30.15F
$$

WAZ021-516-517-282300-
WASHINGTON COAST

CITY           SKY/WX    TMP DP  RH WIND       PRES   REMARKS
FORKS          SUNNY     70  58  65 W9        30.25F
HOQUIAM        SUNNY     73  56  54 W13       30.23F
ASTORIA, OR    SUNNY     74  58  57 NW16      30.20F
$$

WAZ019-023-024-040-518-519-282300-
CASCADE MOUNTAINS AND COLUMBIA GORGE

CITY           SKY/WX    TMP DP  RH WIND       PRES   REMARKS
TROUTDALE, OR  SUNNY     84  52  33 NW7       30.13F
THE DALLES, OR SUNNY     86  33  15 CALM      30.12F
$$

WAZ026-027-041>044-520-521-282300-
EAST SLOPES

CITY           SKY/WX    TMP DP  RH WIND       PRES   REMARKS
OMAK           SUNNY     84  34  16 VRB5      30.13F
WENATCHEE      SUNNY     84  35  17 SE13G18   30.15F
ELLENSBURG     SUNNY     85  34  16 VRB5      30.18F
YAKIMA         MOSUNNY   84  38  19 VRB3      30.17F
$$

WAZ028-034-035-282300-
COLUMBIA BASIN

CITY           SKY/WX    TMP DP  RH WIND       PRES   REMARKS
EPHRATA        SUNNY     83  40  21 SW9       30.17F
MOSES LAKE     SUNNY     82  40  22 S9        30.18F
PASCO          SUNNY     83  40  21 VRB3      30.15F
HERMISTON, OR  SUNNY     83  42  23 N6        30.14F
$$

WAZ036>038-282300-
NORTHEAST WASHINGTON

CITY           SKY/WX    TMP DP  RH WIND       PRES   REMARKS
SPOKANE GEIGER PTSUNNY   75  36  24 SW7       30.20F
SPOKANE FELTS  PTSUNNY   80  38  22 VRB7      30.19F
FAIRCHILD AFB  CLOUDY    76  36  23 VRB3      30.21S
COEURDALENE,ID MOSUNNY   79  37  22 SW13      30.19F
DEER PARK      PTSUNNY   78  37  22 SW6       30.19F HAZE
$$

WAZ029>033-282300-
SOUTHEAST WASHINGTON

CITY           SKY/WX    TMP DP  RH WIND       PRES   REMARKS
PULLMAN        MOSUNNY   76  35  22 VRB5      30.24F
LEWISTON, ID   SUNNY     83  34  17 VRB6      30.18F
WALLA WALLA    SUNNY     83  38  20 VRB3      30.16F
PENDLETON, OR  SUNNY     83  36  18 NW10      30.16F
$$


USA.gov is the U.S. government's official web portal to all federal, state and local government web resources and services.